TimeEST,TemperatureF,Dew PointF,Humidity,Sea Level PressureIn,VisibilityMPH,Wind Direction,Wind SpeedMPH,Gust SpeedMPH,PrecipitationIn,Events,Conditions,WindDirDegrees,DateUTC
12:15 AM,32.5,30.7,93,30.10,10.0,SW,5.8,-,N/A,,Mostly Cloudy,220,2013-01-17 05:15:00
12:35 AM,32.5,29.8,90,30.11,10.0,SW,5.8,-,N/A,,Overcast,220,2013-01-17 05:35:00
12:55 AM,32.5,29.3,88,30.11,10.0,Calm,Calm,-,N/A,,Overcast,0,2013-01-17 05:55:00
1:15 AM,32.5,28.9,87,30.12,10.0,SW,4.6,-,N/A,,Overcast,230,2013-01-17 06:15:00
1:35 AM,32.5,28.9,87,30.11,10.0,SW,3.5,-,N/A,,Overcast,220,2013-01-17 06:35:00
1:55 AM,32.5,28.6,85,30.13,10.0,WSW,4.6,-,N/A,,Mostly Cloudy,240,2013-01-17 06:55:00
2:15 AM,32.5,28.4,85,30.13,10.0,Calm,Calm,-,N/A,,Scattered Clouds,0,2013-01-17 07:15:00
2:35 AM,30.4,27.0,87,30.14,10.0,SW,3.5,-,N/A,,Clear,230,2013-01-17 07:35:00
2:55 AM,32.5,28.6,85,30.14,10.0,South,4.6,-,N/A,,Clear,180,2013-01-17 07:55:00
3:15 AM,32.5,29.3,88,30.14,10.0,SW,3.5,-,N/A,,Clear,220,2013-01-17 08:15:00
3:35 AM,31.6,28.6,88,30.14,10.0,Calm,Calm,-,N/A,,Clear,0,2013-01-17 08:35:00
3:55 AM,32.5,29.3,88,30.14,10.0,SW,3.5,-,N/A,,Clear,220,2013-01-17 08:55:00
4:15 AM,30.2,27.5,90,30.14,10.0,WSW,3.5,-,N/A,,Clear,240,2013-01-17 09:15:00
4:35 AM,31.5,28.0,87,30.15,10.0,Calm,Calm,-,N/A,,Clear,0,2013-01-17 09:35:00
4:55 AM,32.5,29.1,87,30.15,10.0,SW,3.5,-,N/A,,Clear,230,2013-01-17 09:55:00
5:15 AM,30.2,27.1,88,30.16,10.0,WSW,4.6,-,N/A,,Clear,240,2013-01-17 10:15:00
5:35 AM,32.5,29.1,87,30.15,10.0,WSW,3.5,-,N/A,,Clear,250,2013-01-17 10:35:00
5:55 AM,30.2,28.0,92,30.16,10.0,Calm,Calm,-,N/A,,Clear,0,2013-01-17 10:55:00
6:15 AM,32.4,29.7,90,30.15,10.0,NW,3.5,-,N/A,,Clear,310,2013-01-17 11:15:00
6:35 AM,30.2,26.6,86,30.16,10.0,Calm,Calm,-,N/A,,Clear,0,2013-01-17 11:35:00
6:55 AM,32.5,28.9,87,30.16,10.0,NW,3.5,-,N/A,,Clear,320,2013-01-17 11:55:00
7:15 AM,32.5,28.9,87,30.15,10.0,Calm,Calm,-,N/A,,Clear,0,2013-01-17 12:15:00
7:35 AM,30.2,27.0,88,30.18,10.0,SSW,3.5,-,N/A,,Clear,210,2013-01-17 12:35:00
7:55 AM,30.2,27.5,90,30.19,10.0,Calm,Calm,-,N/A,,Clear,0,2013-01-17 12:55:00
8:15 AM,29.8,27.5,91,30.20,10.0,Calm,Calm,-,N/A,,Clear,0,2013-01-17 13:15:00
8:35 AM,30.0,27.5,90,30.21,10.0,Calm,Calm,-,N/A,,Scattered Clouds,0,2013-01-17 13:35:00
8:55 AM,29.5,27.3,92,30.23,10.0,Calm,Calm,-,N/A,,Scattered Clouds,0,2013-01-17 13:55:00
9:15 AM,30.2,29.1,96,30.23,10.0,Calm,Calm,-,N/A,,Clear,0,2013-01-17 14:15:00
9:35 AM,30.7,29.7,96,30.23,10.0,North,3.5,-,N/A,,Scattered Clouds,350,2013-01-17 14:35:00
9:55 AM,32.5,31.1,94,30.23,10.0,Calm,Calm,-,N/A,,Mostly Cloudy,0,2013-01-17 14:55:00
10:15 AM,32.5,30.2,91,30.23,10.0,North,3.5,-,N/A,,Scattered Clouds,10,2013-01-17 15:15:00
10:35 AM,32.5,29.8,90,30.23,10.0,Calm,Calm,-,N/A,,Clear,0,2013-01-17 15:35:00
10:55 AM,32.5,29.3,88,30.23,7.0,Calm,Calm,-,N/A,,Clear,0,2013-01-17 15:55:00
11:15 AM,32.9,29.1,86,30.23,7.0,Calm,Calm,-,N/A,,Clear,0,2013-01-17 16:15:00
11:35 AM,35.1,31.1,85,30.22,-9999.0,Calm,Calm,-,N/A,,Unknown,0,2013-01-17 16:35:00
11:55 AM,35.1,30.9,85,30.20,7.0,Calm,Calm,-,N/A,,Clear,0,2013-01-17 16:55:00
12:15 PM,37.6,32.2,81,30.19,10.0,Calm,Calm,-,N/A,,Clear,0,2013-01-17 17:15:00
12:35 PM,37.6,32.0,80,30.17,10.0,Calm,Calm,-,N/A,,Clear,0,2013-01-17 17:35:00
12:55 PM,40.1,32.0,73,30.16,10.0,NNW,8.1,-,N/A,,Clear,340,2013-01-17 17:55:00
1:15 PM,40.8,31.3,69,30.15,10.0,North,8.1,19.6,N/A,,Clear,350,2013-01-17 18:15:00
1:35 PM,41.0,31.1,68,30.14,10.0,North,11.5,16.1,N/A,,Clear,350,2013-01-17 18:35:00
1:55 PM,41.2,31.6,69,30.14,10.0,North,8.1,-,N/A,,Clear,360,2013-01-17 18:55:00
2:15 PM,40.6,31.5,70,30.14,10.0,North,9.2,-,N/A,,Clear,10,2013-01-17 19:15:00
2:35 PM,41.4,30.7,66,30.14,10.0,North,10.4,-,N/A,,Scattered Clouds,360,2013-01-17 19:35:00
2:55 PM,42.4,31.3,65,30.15,10.0,North,9.2,-,N/A,,Mostly Cloudy,360,2013-01-17 19:55:00
3:15 PM,41.5,29.7,63,30.16,10.0,North,10.4,-,N/A,,Scattered Clouds,360,2013-01-17 20:15:00
3:35 PM,41.5,29.7,63,30.16,10.0,North,9.2,-,N/A,,Clear,360,2013-01-17 20:35:00
3:55 PM,40.8,29.3,64,30.16,10.0,North,12.7,17.3,N/A,,Clear,350,2013-01-17 20:55:00
4:15 PM,40.1,30.2,68,-9999,10.0,North,10.4,-,N/A,,Clear,10,2013-01-17 21:15:00
4:35 PM,40.1,29.8,67,30.17,10.0,North,11.5,17.3,N/A,,Clear,360,2013-01-17 21:35:00
4:55 PM,38.8,28.9,68,30.18,10.0,North,11.5,17.3,N/A,,Clear,350,2013-01-17 21:55:00
5:55 PM,37.6,29.7,73,30.24,10.0,Calm,Calm,-,N/A,,Clear,0,2013-01-17 22:55:00
6:35 PM,32.5,29.1,87,30.27,10.0,NNW,6.9,-,N/A,,Scattered Clouds,330,2013-01-17 23:35:00
8:55 PM,32.5,24.6,73,30.32,10.0,NNW,9.2,-,N/A,,Clear,330,2013-01-18 01:55:00
9:15 PM,32.5,24.3,72,30.34,10.0,NW,10.4,17.3,N/A,,Clear,320,2013-01-18 02:15:00
9:55 PM,30.6,23.4,75,30.36,10.0,NW,9.2,-,N/A,,Clear,320,2013-01-18 02:55:00
10:15 PM,30.2,23.7,77,30.36,10.0,NW,8.1,-,N/A,,Clear,320,2013-01-18 03:15:00
10:35 PM,29.1,22.8,77,30.37,10.0,NNW,9.2,-,N/A,,Clear,330,2013-01-18 03:35:00
10:55 PM,27.9,20.8,75,30.38,10.0,NNW,9.2,-,N/A,,Clear,340,2013-01-18 03:55:00